Theta_e
297 297 297 298 297 297 297 297 297 297 298 298 299 302 306 309 310 310 312 313 313 315 319 317 316 318 317 315 314 315 315 314 313 312 312 311 311 311 310 311 311 311 313 314 313 314 314 313 315 317 317 318 316 312 312 313 314 319 318 313 313 319 321 318 318 318 316 314 312 312 312 313 315 313 313 316 314 317 327 328 326 322 315 317 321 322 325
297 297 297 297 297 297 296 296 297 297 298 298 299 302 307 309 310 309 310 314 315 315 316 316 317 318 316 313 313 314 313 312 312 312 311 310 310 312 312 312 312 311 313 312 310 312 314 313 314 317 319 318 315 313 313 314 316 317 315 314 314 314 316 317 319 316 313 318 322 320 315 314 314 312 314 314 313 319 322 320 325 325 314 318 326 323 324
297 297 297 297 297 297 296 296 297 297 298 298 300 304 307 309 310 307 306 309 311 311 310 311 313 316 315 313 313 313 312 311 311 311 310 309 309 312 313 311 310 312 315 315 312 312 314 314 314 316 319 317 312 312 313 312 314 314 313 314 315 315 319 324 324 318 316 320 326 325 317 312 313 313 314 315 316 319 316 316 327 324 312 317 327 325 323
297 297 297 297 297 297 296 296 297 297 299 299 301 305 307 309 310 308 306 306 307 307 307 308 310 311 312 312 311 311 311 311 310 309 310 309 307 309 309 308 311 315 317 318 316 314 314 314 314 314 316 316 310 310 313 313 313 315 312 311 317 321 320 323 327 325 320 319 319 318 314 312 312 311 312 316 317 319 320 321 324 321 317 318 318 318 319
297 297 297 297 297 297 296 296 296 297 299 301 302 305 306 307 307 307 306 307 307 307 307 308 309 309 311 310 309 309 309 309 310 310 309 308 308 309 306 305 311 315 315 318 317 314 314 314 313 312 313 316 313 308 310 311 311 315 310 308 321 328 317 314 320 317 313 314 312 309 310 310 310 310 312 315 317 322 326 320 313 316 322 317 312 316 319
296 297 297 297 297 297 296 296 296 297 300 302 303 304 304 305 305 304 305 307 308 308 308 307 307 307 309 309 308 308 308 308 309 309 309 307 308 312 309 305 305 307 310 318 317 314 316 314 312 312 311 314 316 312 309 309 307 310 311 309 320 328 316 310 314 312 308 310 309 308 309 308 308 312 314 315 317 320 320 315 311 316 321 316 311 314 314
296 297 297 297 297 297 296 296 296 297 300 304 305 305 304 304 304 303 304 306 307 306 306 306 306 306 307 308 307 307 308 308 306 307 311 310 307 310 309 305 303 303 307 314 313 311 314 313 310 310 310 312 315 313 312 310 305 309 315 312 313 319 316 312 314 313 308 308 308 308 309 309 310 312 312 312 313 314 315 312 311 314 315 312 309 311 309
296 296 297 296 296 296 296 296 296 296 300 304 305 304 303 303 303 303 303 303 303 303 304 305 306 306 306 306 306 305 306 308 306 305 309 311 308 309 308 305 304 303 304 308 308 306 308 310 309 309 311 313 312 310 310 309 305 310 317 313 310 314 313 314 321 318 309 308 309 309 310 311 312 313 311 311 312 312 313 312 311 312 310 307 309 311 309
296 296 297 296 296 296 296 297 296 295 298 302 304 304 303 303 303 303 303 302 301 301 302 304 306 305 305 305 305 304 304 305 306 305 305 306 307 308 307 305 305 305 305 306 306 304 304 306 307 307 308 309 309 308 308 307 306 310 314 313 315 317 313 314 323 320 310 309 309 309 311 311 312 314 312 312 313 312 311 309 308 310 310 310 312 312 309
295 296 296 296 296 296 296 297 297 296 296 299 303 304 303 303 303 302 303 303 300 299 301 303 305 305 304 303 303 303 303 303 306 308 305 303 304 305 304 305 307 306 305 305 304 302 302 304 304 304 305 305 305 306 306 306 305 307 311 311 314 321 318 314 318 318 311 310 311 312 314 312 312 313 310 308 309 308 307 306 304 305 309 312 313 309 305
295 296 296 296 296 296 296 297 297 296 296 298 302 303 303 303 303 301 303 304 300 298 300 302 303 304 303 302 303 303 303 303 305 307 306 303 303 302 301 304 308 306 304 303 302 302 303 304 304 303 304 304 305 305 305 307 306 305 309 311 311 319 322 316 317 317 311 310 313 314 314 312 310 309 308 307 307 306 306 306 303 303 306 308 307 305 304
296 296 296 296 296 295 295 297 298 297 297 298 301 303 303 303 303 300 301 304 301 298 301 301 300 301 302 301 302 303 303 303 303 303 304 302 302 302 300 302 305 305 303 302 302 303 303 304 305 306 305 303 304 304 304 308 308 303 304 308 311 316 317 313 317 319 311 311 316 316 312 310 308 305 305 306 305 303 303 303 302 304 304 304 304 304 303
296 296 296 296 296 295 295 296 298 298 297 297 300 302 303 302 303 301 300 302 301 298 301 301 299 300 301 300 302 302 301 302 302 301 302 302 301 301 301 300 301 302 302 302 303 304 305 308 309 308 307 307 309 308 305 307 309 306 304 306 310 315 316 311 312 313 309 310 315 313 308 306 306 305 305 304 303 304 306 305 303 303 304 304 304 303 301
295 296 296 296 295 295 295 296 297 298 298 298 299 301 302 301 302 302 301 302 300 297 299 301 300 300 301 300 300 301 301 302 302 302 302 301 301 301 300 301 301 301 302 302 302 303 307 311 314 312 310 311 312 309 307 305 306 308 307 305 306 312 316 312 308 309 311 311 309 307 306 306 306 307 305 304 304 306 307 306 303 302 302 302 303 303 300
295 295 295 295 295 295 295 295 297 297 298 298 298 300 301 300 301 301 301 302 302 299 299 300 300 300 300 300 300 301 303 302 302 303 302 300 301 301 301 301 301 302 303 302 302 307 311 311 312 311 309 309 308 307 308 306 304 305 305 304 306 308 311 311 308 307 310 312 308 305 308 309 308 309 306 303 303 302 303 306 304 301 300 299 300 301 299
295 295 295 295 295 295 295 295 296 297 297 297 298 299 300 299 299 300 299 300 302 301 299 298 299 299 299 300 299 300 302 303 303 305 305 302 301 301 301 301 301 302 303 301 303 310 314 311 309 310 308 306 306 306 307 307 307 306 305 306 307 308 310 313 312 308 308 311 310 308 309 308 307 308 305 302 301 300 302 307 306 300 298 298 298 298 297
295 295 295 295 295 294 294 295 296 297 297 296 297 299 300 299 299 299 298 298 299 299 298 298 299 299 299 300 300 299 300 301 301 303 304 302 300 300 301 301 301 301 302 303 306 310 311 309 308 309 307 304 306 307 306 307 309 308 307 309 309 310 312 312 312 310 309 310 309 306 306 306 305 306 304 300 299 300 304 310 307 299 297 298 298 297 297
295 295 295 295 295 294 294 295 296 297 297 296 296 298 299 299 299 299 298 297 298 298 297 298 298 298 298 299 299 298 298 299 300 301 302 301 299 300 300 300 300 301 301 306 309 308 306 305 305 306 305 303 305 308 306 307 308 306 306 309 308 309 310 309 308 309 309 310 307 304 304 305 303 302 301 299 299 302 306 308 303 297 297 298 298 298 298
295 295 295 295 295 295 294 295 296 297 297 296 296 297 299 299 298 298 298 297 298 298 297 297 298 298 298 297 297 297 298 298 300 302 303 302 299 299 299 299 300 300 300 304 306 304 304 304 302 303 304 303 303 307 305 303 304 303 304 307 306 306 308 307 306 307 307 307 305 303 304 303 300 300 300 299 302 305 304 302 299 297 298 298 298 298 299
295 295 295 295 295 295 295 295 296 297 297 296 296 296 298 299 298 298 298 298 298 298 297 298 298 297 297 297 297 298 298 299 299 300 301 301 299 300 303 304 301 299 300 303 304 302 302 303 302 302 303 301 302 305 305 302 301 300 301 304 303 303 306 306 305 305 305 305 304 305 304 301 299 300 301 300 302 302 299 298 298 298 298 298 298 299 298
295 295 295 295 295 295 295 296 296 297 297 296 295 296 297 299 299 299 299 299 299 298 298 298 298 297 297 298 297 297 297 298 298 299 299 299 299 301 304 303 300 299 299 300 302 300 299 301 301 300 300 300 301 302 302 304 303 299 300 302 301 301 304 305 303 303 304 305 303 302 301 299 298 300 300 299 299 299 298 298 299 298 298 298 298 298 298
296 295 295 296 295 295 295 296 297 297 297 296 296 295 296 298 299 299 299 299 299 299 298 298 297 297 297 297 297 297 297 297 297 298 298 298 298 299 300 299 298 299 298 299 300 300 299 300 300 300 300 300 300 299 300 304 304 300 299 301 300 300 301 301 301 300 301 302 301 299 298 298 298 299 299 298 299 298 298 299 298 298 299 298 298 298 298
296 296 295 296 295 295 295 296 297 297 297 297 296 295 296 298 299 299 299 298 297 298 298 298 297 297 297 297 297 297 297 297 298 297 297 298 298 298 298 298 299 299 298 298 299 299 298 298 299 300 300 299 300 300 301 301 301 300 299 299 298 297 297 299 299 298 298 299 298 298 298 298 298 298 298 298 298 298 298 298 298 298 299 298 298 298 298
296 296 296 296 296 295 295 296 297 297 297 297 297 296 295 297 298 298 299 298 298 298 298 297 297 297 297 297 297 297 297 297 297 297 297 297 297 298 298 298 299 298 298 299 298 298 298 297 298 300 301 299 299 301 301 300 300 300 301 301 300 298 298 299 299 299 300 299 297 297 298 298 298 298 298 298 298 298 298 298 298 298 298 298 298 298 297
296 296 296 295 296 296 295 295 296 298 297 297 298 297 295 296 297 298 299 299 298 298 298 298 297 297 297 297 297 297 296 297 297 297 297 296 297 298 298 298 298 298 298 298 298 298 298 297 298 301 301 298 298 300 299 299 299 299 301 302 300 298 298 299 299 300 301 300 297 297 298 298 297 298 298 298 298 298 298 298 298 298 298 298 297 297 297
296 295 295 295 296 296 296 295 295 297 298 298 298 298 296 294 296 297 298 299 298 298 299 299 298 297 297 296 296 297 296 296 297 297 296 297 297 297 298 298 298 298 297 298 298 298 298 297 298 301 301 298 298 299 299 298 297 298 299 298 297 298 298 298 298 298 298 298 297 297 297 297 297 297 298 298 298 298 298 298 298 297 297 297 297 297 297
296 296 295 295 296 296 296 295 295 296 298 299 299 299 296 293 294 296 296 298 299 299 299 299 298 297 297 297 296 296 296 296 297 296 296 296 296 297 297 297 297 297 297 298 298 297 297 297 298 299 299 297 297 297 296 296 297 299 299 297 297 299 299 297 297 300 300 299 298 297 297 298 297 297 298 298 297 297 297 297 297 297 297 297 297 296 296
296 296 295 296 296 296 296 295 295 296 297 298 299 299 296 292 293 294 295 296 298 298 299 299 298 297 297 297 296 296 296 296 297 296 296 296 296 296 296 296 296 297 297 297 297 297 297 297 298 297 297 297 297 297 295 296 298 299 299 297 297 298 298 298 300 301 301 299 298 297 298 298 297 297 297 297 297 297 297 297 296 296 296 296 296 295 295
296 296 295 296 297 296 295 296 296 295 296 297 298 299 297 294 292 293 293 295 296 297 297 297 298 298 298 297 297 296 296 296 297 296 296 296 296 296 296 296 296 297 297 297 297 297 296 296 296 297 297 297 298 298 297 297 299 299 298 297 298 297 297 298 298 299 298 298 297 298 298 297 297 297 297 297 297 297 297 296 296 295 295 295 295 294 294
295 296 296 296 297 296 295 296 296 295 295 296 296 297 297 296 294 293 293 294 295 296 296 297 298 299 298 297 297 297 296 296 297 297 297 297 297 297 296 295 296 296 297 297 296 296 296 296 295 297 298 297 296 297 297 297 297 298 297 297 298 298 298 297 297 298 298 298 297 297 297 297 297 297 297 297 297 296 296 296 295 295 294 294 294 293 292
295 295 296 296 297 297 296 296 297 296 296 297 296 296 296 296 295 294 293 293 295 296 296 297 298 298 297 297 297 297 296 296 297 297 297 297 297 297 296 295 296 296 296 296 296 295 296 295 295 296 298 297 296 298 299 299 298 297 297 298 298 298 298 298 297 297 298 297 297 297 297 297 297 297 297 297 296 296 295 295 294 294 294 293 293 292 292
294 295 295 296 297 297 296 296 297 298 297 298 298 297 297 297 296 294 293 293 295 296 296 297 298 297 296 297 297 297 297 297 297 297 297 297 297 297 296 296 296 296 296 296 296 295 295 295 295 296 297 297 298 299 300 300 300 298 297 297 298 298 298 298 298 297 297 297 297 297 296 296 297 297 296 296 296 295 295 295 294 293 292 292 292 291 291
294 294 295 295 296 297 297 297 297 298 298 298 299 299 298 298 296 294 293 293 295 297 298 298 298 297 296 296 297 297 297 298 298 297 297 297 297 296 296 295 296 296 296 296 295 295 295 295 295 295 296 297 297 298 298 299 299 298 297 297 298 297 298 297 297 297 297 297 297 296 296 296 297 296 296 296 295 295 294 294 293 292 291 291 291 291 291
294 294 295 295 295 297 298 298 298 298 298 299 299 299 298 297 296 294 293 293 295 298 299 299 298 298 297 297 298 298 297 297 297 297 297 297 297 296 296 296 296 296 296 296 295 295 295 295 295 296 297 296 295 296 298 298 297 296 297 298 297 298 298 297 297 297 297 296 297 296 296 296 296 296 296 295 294 294 293 292 292 292 291 291 291 291 291
294 294 294 295 296 297 298 298 299 298 298 299 299 298 297 296 295 294 294 293 294 297 298 298 298 298 299 300 300 299 297 297 297 297 296 297 297 296 296 295 295 295 296 296 295 294 294 295 295 296 296 295 295 297 299 298 296 296 297 297 297 297 297 297 297 297 296 296 296 296 296 296 296 295 295 294 294 293 293 292 292 291 291 291 290 291 291
294 294 294 295 296 297 298 299 299 299 299 299 299 298 296 296 295 294 294 294 294 295 296 297 297 297 298 299 299 297 297 297 297 296 296 297 297 296 296 295 296 296 295 295 294 294 295 295 296 296 294 295 297 299 298 296 296 297 297 297 297 297 297 296 296 296 296 296 296 296 296 296 295 295 294 293 293 292 292 292 291 291 290 290 290 290 290
294 294 294 295 296 297 299 300 300 300 299 299 299 297 296 296 296 296 295 295 295 295 295 296 297 296 296 297 297 296 297 298 297 297 297 297 296 295 295 296 296 295 295 296 296 296 296 296 296 296 296 297 298 297 295 296 297 297 297 297 298 297 296 296 296 296 296 296 296 296 295 295 295 294 293 293 293 292 291 291 291 290 290 290 290 290 290
294 294 294 295 295 297 299 300 299 299 300 299 298 297 297 297 297 297 297 297 298 298 297 297 297 296 296 297 297 297 298 297 296 297 297 297 296 296 296 296 295 294 295 297 297 295 295 297 297 296 297 297 296 296 296 296 296 297 297 297 297 297 296 296 296 296 296 296 296 295 295 295 294 293 293 293 293 292 290 289 289 289 289 289 290 291 291
294 294 294 295 296 297 298 299 298 298 298 298 298 298 298 298 298 298 298 299 299 299 298 298 298 297 297 297 297 297 298 297 297 298 297 296 296 297 296 295 295 294 295 297 296 293 295 298 297 296 297 296 295 296 297 297 296 297 298 297 296 296 296 296 296 296 296 296 295 295 295 294 294 293 293 293 293 293 291 290 289 289 289 289 290 291 291
294 294 294 295 295 296 297 297 296 296 297 298 298 298 298 298 298 298 298 299 299 299 298 299 298 297 297 297 297 297 297 297 298 298 298 297 296 295 294 295 295 294 294 296 295 293 295 296 295 295 298 299 296 296 297 297 297 297 297 296 296 296 295 295 296 296 296 296 295 294 294 294 294 294 293 293 293 293 293 292 290 290 289 289 289 290 290
294 295 295 296 296 296 296 296 296 296 297 297 298 297 297 297 297 297 297 298 299 299 298 297 297 297 297 297 297 297 297 298 297 296 297 297 296 295 295 295 294 293 295 296 295 295 296 296 295 296 299 298 296 296 297 297 297 297 297 296 296 295 295 295 296 296 296 296 294 293 293 294 294 294 294 293 292 293 293 292 291 290 290 290 289 289 290
295 295 296 296 296 296 297 297 297 298 298 297 297 297 296 296 297 296 296 297 298 298 297 297 297 297 297 297 297 297 297 297 296 296 296 297 295 295 296 296 294 294 296 296 295 295 295 294 296 299 299 295 295 297 297 297 297 297 297 296 296 296 295 295 296 296 296 296 295 294 294 294 294 294 294 293 292 292 291 291 291 291 290 290 289 288 289
296 296 296 297 297 296 297 297 298 298 298 297 297 296 297 297 297 297 297 297 297 296 296 297 297 297 297 297 297 297 297 296 296 296 296 297 296 295 296 296 295 295 296 296 295 296 295 295 298 300 299 295 295 297 297 297 297 297 296 296 296 296 295 295 296 296 296 295 295 294 294 294 294 294 294 294 293 292 291 291 291 291 290 290 289 288 288
296 296 296 296 297 296 297 297 297 297 297 297 297 296 297 298 298 297 298 299 298 297 297 297 296 297 298 297 296 296 296 296 296 296 295 296 296 296 296 297 296 294 294 296 297 295 295 297 298 298 295 295 296 297 297 297 297 296 296 296 296 296 295 295 295 295 295 295 295 294 294 294 294 293 294 294 293 292 291 291 291 291 290 290 289 288 288
296 296 296 296 297 296 295 296 297 297 297 298 298 297 297 297 298 298 298 299 298 297 298 297 297 297 297 297 296 297 296 295 296 296 295 294 295 295 296 297 297 295 294 296 297 295 295 298 298 295 294 295 296 296 297 297 296 296 296 296 295 295 295 295 295 295 295 295 294 294 294 294 293 293 293 294 294 293 292 291 291 291 291 290 289 287 287
296 296 295 296 297 296 295 296 298 298 297 296 297 297 296 296 296 297 297 297 297 297 298 298 298 297 297 297 297 297 296 295 295 296 295 294 296 297 295 295 295 295 295 296 296 296 298 298 296 293 294 295 295 295 296 296 295 295 295 295 295 295 295 295 296 296 295 295 294 294 294 294 293 293 294 294 294 293 292 291 291 291 291 290 289 287 287
296 295 294 296 298 297 296 297 298 297 296 295 296 296 296 296 296 296 297 297 297 298 298 298 298 297 297 296 296 296 296 296 296 296 295 295 296 297 296 295 295 296 296 295 296 299 300 297 294 294 295 295 294 295 296 296 296 295 295 294 295 295 295 295 295 296 296 295 295 294 294 293 293 294 294 294 294 293 292 291 291 291 290 290 288 287 286
295 294 295 298 299 297 296 296 297 296 295 296 296 296 296 296 296 296 297 297 297 297 298 297 297 297 297 297 296 295 295 295 296 296 296 296 296 296 297 297 296 296 296 296 299 301 300 296 294 295 296 295 295 296 296 296 296 295 294 294 295 295 295 295 295 295 295 296 295 295 294 294 293 294 294 294 293 293 292 292 291 291 290 289 287 286 286
296 295 296 296 296 295 295 295 296 295 296 296 296 296 296 296 296 296 297 297 297 297 297 297 297 297 297 296 296 295 295 295 296 296 296 296 296 297 297 297 297 296 297 297 297 297 296 295 294 295 296 295 295 296 295 295 295 294 294 294 295 295 295 295 295 295 295 296 296 295 295 294 294 294 294 294 294 293 293 292 291 291 291 289 287 286 286
296 296 295 295 295 295 295 295 296 296 296 296 296 296 296 296 295 296 296 296 296 297 297 296 296 296 296 296 296 296 296 296 296 296 296 297 297 296 296 296 297 299 299 297 294 294 295 295 295 295 295 295 295 296 295 295 294 294 294 294 294 294 294 295 294 295 295 296 296 296 296 295 294 294 294 294 294 294 294 293 291 291 291 289 287 286 286
295 295 295 295 296 296 295 296 296 296 295 295 295 296 296 296 296 296 296 296 296 297 297 297 297 297 296 296 296 296 296 295 295 295 296 297 297 296 296 297 298 298 297 296 295 295 296 296 295 295 296 295 295 295 296 295 295 294 294 294 294 294 294 294 294 295 295 296 296 296 296 296 295 294 294 294 294 295 295 293 292 291 291 289 287 286 287
295 295 295 295 296 296 296 295 295 295 295 296 296 296 296 296 296 296 296 296 296 296 296 296 297 297 297 297 296 295 296 296 295 295 296 296 295 296 298 299 297 295 295 295 295 296 296 296 295 296 295 295 295 295 295 295 295 295 294 294 294 294 294 294 294 295 295 295 296 296 296 296 296 295 295 294 294 294 294 293 292 292 291 289 288 288 288
Wind_Speed
24 26 28 29 31 31 31 31 30 31 31 27 23 18 15 10 3 9 11 8 15 5 2 2 2 1 2 3 5 5 3 2 2 4 3 3 4 4 2 3 3 3 2 1 2 3 1 1 3 4 1 1 2 1 2 6 5 4 2 1 1 2 3 3 1 3 3 4 5 4 3 5 6 3 2 3 2 2 4 5 4 3 3 2 4 2 5
24 26 28 29 31 31 32 32 29 30 30 27 23 16 12 10 5 10 12 5 11 2 2 1 2 3 4 4 3 5 5 5 5 4 1 2 2 1 1 2 2 1 1 3 3 2 2 1 0 4 2 1 2 4 6 7 3 1 2 2 0 1 1 3 3 1 2 4 5 5 5 4 3 2 4 3 3 4 3 1 3 3 3 4 5 2 6
24 26 28 29 31 31 32 32 30 29 29 25 19 14 11 8 5 9 15 13 9 6 3 0 2 3 3 3 4 4 4 4 5 3 3 5 3 1 2 4 4 4 4 4 5 5 3 2 3 3 1 2 5 5 5 5 4 3 4 4 2 2 2 3 4 4 4 2 2 2 1 2 2 2 5 5 4 5 2 2 4 2 2 3 5 5 5
24 26 28 29 31 32 31 32 31 29 29 23 15 12 9 5 4 5 10 19 21 14 11 8 3 3 1 1 3 4 3 4 5 6 6 5 6 6 5 5 4 5 5 5 5 7 5 3 3 4 3 2 4 7 5 4 5 5 7 7 5 3 3 2 4 4 5 5 4 4 3 3 1 1 4 5 4 4 4 4 3 3 3 3 1 3 2
24 25 27 29 31 32 31 32 31 30 28 20 11 11 10 5 3 4 4 9 14 13 17 16 7 4 3 1 2 6 3 3 8 8 6 7 7 6 7 8 5 3 3 4 4 6 6 6 4 4 5 3 3 8 11 10 9 3 5 7 5 4 3 2 4 4 1 3 2 1 4 5 3 1 4 5 4 5 6 4 2 4 5 1 4 1 5
24 24 26 28 30 31 31 31 31 29 27 18 11 14 13 6 3 6 5 3 4 6 10 12 9 9 9 2 1 6 7 6 6 5 4 8 9 5 5 10 8 4 2 4 3 5 4 6 5 4 5 4 4 7 8 9 11 6 4 5 4 5 2 1 4 5 3 3 4 5 6 6 4 4 4 4 5 6 6 2 0 4 6 4 2 6 6
23 24 25 28 30 31 31 31 30 28 24 17 16 18 14 7 4 8 8 5 4 4 4 7 10 11 10 5 4 7 9 8 5 4 2 5 9 6 4 6 9 8 6 5 3 3 3 3 4 3 4 4 3 4 4 7 12 8 4 3 3 4 1 2 3 5 4 4 3 7 9 7 5 6 4 4 6 7 6 3 3 7 7 4 7 10 7
22 23 24 26 28 29 30 30 30 29 22 17 21 21 14 9 6 7 8 8 10 11 8 7 8 9 9 7 6 7 8 8 6 6 6 3 5 6 5 3 5 7 9 8 4 1 2 2 1 1 2 3 3 3 1 3 9 7 3 2 2 3 2 1 3 5 3 4 4 8 10 9 7 6 5 5 7 7 6 4 4 7 7 4 8 11 6
22 23 23 24 26 27 29 29 29 30 24 19 23 22 15 11 8 7 4 5 10 11 8 6 5 5 7 6 6 7 8 8 5 5 10 8 3 3 2 2 3 5 9 9 4 1 2 4 6 5 3 3 2 2 1 1 4 6 3 2 3 3 2 1 4 4 0 2 4 6 9 10 8 6 5 5 5 5 4 3 3 3 6 4 7 7 1
22 22 22 23 24 25 27 27 27 28 26 22 22 21 15 11 10 7 3 4 9 8 5 5 5 3 4 6 8 8 9 11 7 4 8 12 9 5 2 2 3 5 7 7 5 7 7 8 11 11 9 10 9 8 5 2 2 2 2 2 2 3 4 2 3 4 2 3 1 3 5 7 3 2 2 2 4 6 5 5 6 3 4 5 4 3 2
21 22 21 21 23 23 24 25 25 26 26 24 22 20 17 13 11 9 4 4 8 9 4 5 5 3 3 5 6 8 10 13 11 5 3 7 12 13 10 6 5 4 5 8 9 10 10 9 11 12 11 11 10 7 5 4 3 2 0 2 2 3 4 3 2 4 3 5 3 3 3 2 3 5 2 2 4 8 9 6 5 6 5 4 4 3 2
20 21 21 21 21 21 22 22 23 24 24 23 19 17 15 13 11 11 8 5 5 9 5 5 5 3 5 6 4 4 6 7 10 10 6 5 12 18 16 10 5 2 9 13 11 8 6 5 5 6 7 7 6 3 1 3 4 3 2 2 2 3 4 3 2 4 3 2 5 4 2 3 1 3 3 4 6 11 14 9 5 6 6 5 6 5 3
20 20 20 20 20 20 21 20 20 21 21 20 18 15 13 12 10 10 9 6 3 5 2 3 9 11 12 11 7 4 7 9 12 14 11 8 11 16 17 12 7 8 11 11 8 5 2 2 3 3 4 5 5 3 1 2 5 4 3 1 4 4 3 3 2 3 2 1 3 2 4 1 2 5 3 3 2 6 11 9 7 6 4 3 5 3 3
19 19 19 19 19 20 20 19 19 19 19 19 18 15 12 11 11 10 9 6 3 6 4 2 8 12 11 12 9 6 10 13 12 11 11 10 9 12 17 17 13 12 10 6 4 4 2 1 3 2 3 4 4 2 1 3 6 7 7 4 3 6 3 2 2 2 3 3 2 1 0 1 1 2 1 2 2 2 4 5 2 3 3 2 3 3 4
18 19 18 18 18 18 18 19 18 18 18 17 15 13 12 11 10 10 8 5 3 7 11 5 5 6 5 9 11 7 5 8 7 6 8 10 10 11 15 18 16 13 9 5 3 2 2 2 3 1 2 2 0 2 2 2 3 5 7 5 2 4 3 4 4 2 3 5 3 2 1 3 5 4 4 2 4 4 4 6 1 3 5 4 2 3 6
17 18 18 17 17 17 17 18 18 18 18 16 13 12 12 12 12 11 11 9 5 3 9 7 4 4 3 6 10 7 3 4 4 4 5 9 12 14 13 14 15 14 12 7 4 3 3 2 2 2 1 1 1 1 2 2 3 4 5 7 8 6 3 3 4 2 3 5 4 3 4 4 5 6 6 9 8 5 3 5 1 3 5 5 4 6 9
16 16 17 16 17 17 16 17 17 17 17 15 12 12 11 11 12 12 15 17 13 6 7 10 11 11 8 5 7 7 5 4 3 2 2 4 8 13 15 14 15 17 15 7 3 4 4 2 2 2 0 1 0 0 1 2 2 5 6 6 8 7 4 4 4 2 2 4 3 2 3 2 2 5 7 13 8 3 5 2 4 2 4 7 10 10 11
15 15 15 16 16 16 16 16 16 16 16 14 11 10 11 10 10 9 12 16 13 8 10 13 14 13 9 6 6 6 5 5 3 1 2 2 4 10 13 13 13 14 13 6 2 3 4 2 2 2 1 3 2 1 1 2 1 3 3 3 4 4 3 3 3 3 2 4 4 1 2 1 3 5 10 15 6 5 4 4 6 3 6 9 12 12 10
15 14 14 15 16 16 15 14 14 16 16 14 10 8 9 11 10 10 13 16 13 9 11 14 15 15 12 11 12 12 9 7 6 3 1 3 6 9 7 6 9 10 8 5 3 2 3 2 2 1 1 3 2 1 1 2 2 3 3 3 3 2 3 3 2 2 3 3 3 2 1 2 7 8 9 11 3 4 2 3 5 7 9 9 9 8 7
14 13 14 14 15 16 15 13 13 14 16 15 12 8 7 9 10 11 13 15 13 11 11 12 12 14 14 14 16 16 14 12 10 6 2 2 9 9 2 2 7 9 6 5 3 2 2 1 2 1 1 2 2 1 2 2 2 2 2 2 2 1 1 2 2 2 2 3 3 3 2 4 10 8 5 7 3 4 4 5 6 7 8 8 7 5 4
13 13 13 13 14 15 15 13 12 13 15 16 14 8 4 5 7 9 9 9 9 8 9 9 9 11 13 13 15 17 15 13 10 7 4 4 10 7 3 2 5 5 2 2 2 1 1 0 1 1 1 2 2 1 1 2 3 3 2 2 2 2 1 1 1 1 1 1 2 2 2 4 9 7 4 4 5 6 6 5 5 5 5 5 3 3 2
12 12 12 12 13 13 13 12 11 12 14 16 15 11 6 4 6 7 7 7 7 6 6 8 10 10 9 9 11 14 14 14 13 11 8 8 10 10 5 2 5 4 3 3 2 1 1 1 0 1 1 1 2 2 2 2 1 4 3 2 2 3 3 5 2 1 2 3 3 4 3 6 13 14 10 8 8 7 5 4 3 3 2 0 0 0 2
12 12 11 11 12 12 11 11 10 10 12 14 16 15 11 6 5 6 6 7 8 7 6 6 8 9 8 7 8 10 11 12 12 13 11 8 8 8 7 6 6 4 4 5 2 1 1 1 1 1 1 0 1 3 3 3 1 2 2 2 2 3 7 8 5 3 5 7 6 7 7 9 12 12 10 8 7 5 4 2 1 1 1 2 3 3 5
12 12 10 10 11 11 10 9 8 8 10 12 14 16 13 7 4 3 3 4 5 6 5 5 7 8 8 6 6 7 9 9 9 11 12 9 5 5 5 6 5 4 5 6 4 1 1 0 0 2 1 0 1 2 3 2 1 1 2 2 3 2 4 5 4 4 4 4 4 5 7 8 8 7 7 6 5 4 2 1 1 2 3 4 5 7 9
11 11 10 10 10 10 9 8 7 6 7 9 12 13 12 10 7 5 3 3 4 4 2 3 6 7 6 5 5 6 7 6 6 7 9 10 9 6 5 6 6 5 5 6 5 3 3 2 2 2 2 1 1 1 1 1 0 1 2 0 2 3 4 4 3 2 2 2 4 6 9 9 6 6 5 5 5 4 3 3 3 4 5 6 8 9 11
10 10 10 9 11 11 9 6 5 4 4 7 10 12 12 12 10 7 5 5 5 4 1 1 3 4 5 5 6 6 4 2 5 7 6 7 9 8 6 6 6 5 5 5 5 5 4 2 2 2 1 1 1 1 2 1 1 2 2 1 3 3 3 1 3 3 2 1 1 4 6 4 2 3 5 5 5 5 4 4 4 5 6 7 9 10 11
9 9 9 9 11 11 9 6 5 3 2 5 8 9 11 12 11 9 8 5 3 2 1 1 2 3 3 4 5 5 3 2 5 7 5 5 6 6 5 5 5 5 6 5 5 5 5 3 3 1 1 0 1 2 2 2 2 3 1 3 3 2 0 1 4 4 0 3 2 4 4 3 2 3 4 4 4 3 3 3 5 6 6 8 9 10 11
8 8 8 9 11 11 7 5 5 2 1 3 5 6 7 10 11 10 9 6 4 2 1 3 4 4 2 3 4 5 3 2 4 6 4 3 3 4 5 5 3 3 5 5 4 3 2 3 2 1 1 1 1 1 2 3 3 3 1 4 3 2 2 2 4 4 4 4 5 5 3 2 2 3 2 1 1 2 4 4 4 5 6 7 8 10 12
8 7 7 8 10 9 6 4 5 4 2 2 4 4 5 8 11 10 8 7 6 4 4 4 3 2 2 2 3 4 3 3 5 4 4 4 3 4 6 7 3 1 3 3 1 1 1 1 0 1 1 1 1 1 1 3 2 0 3 2 2 3 2 3 5 5 3 5 6 4 3 2 2 2 3 2 2 4 4 4 4 6 7 8 10 12 14
8 6 6 6 7 7 5 3 3 5 4 3 3 3 3 5 8 9 8 7 6 5 5 3 2 1 2 3 3 3 2 3 4 3 2 4 5 4 6 6 2 1 2 2 1 1 1 2 2 1 0 0 1 1 1 2 1 2 3 4 6 6 5 5 5 3 4 6 6 4 3 4 3 3 4 4 4 4 4 5 6 7 9 10 12 14 13
9 7 6 6 5 5 4 1 2 3 5 5 4 3 2 3 7 8 7 6 5 5 4 3 2 2 2 3 3 3 3 4 5 4 5 6 5 5 6 4 1 1 2 1 1 1 1 1 1 1 1 1 1 2 2 3 1 2 5 7 9 8 7 7 5 4 5 6 5 3 4 4 3 3 4 4 4 5 5 6 7 9 11 12 13 12 11
9 8 7 6 5 4 3 1 1 1 3 4 5 4 3 6 9 8 5 4 4 4 4 3 2 2 2 3 3 3 3 4 5 5 6 6 5 4 4 2 1 3 2 1 1 1 1 1 1 1 1 1 1 2 3 3 2 5 8 10 10 9 8 7 6 5 4 3 3 3 5 5 5 5 5 4 5 6 7 9 10 10 10 11 10 9 9
10 9 8 7 6 5 4 4 3 2 0 2 3 4 7 10 11 8 5 4 3 3 2 2 1 0 2 2 1 2 4 4 3 5 6 4 4 3 3 3 3 4 3 2 2 1 1 1 2 1 1 2 2 3 2 1 5 9 12 12 11 10 9 7 6 5 5 4 4 5 6 6 5 5 4 4 4 7 9 12 12 10 8 9 10 10 9
10 10 8 7 7 7 5 5 5 4 3 2 2 5 8 11 10 8 5 3 2 1 1 1 0 1 3 2 0 2 6 6 4 5 5 3 4 4 3 3 3 2 2 2 2 1 2 2 3 2 2 1 2 2 1 4 7 11 14 13 11 11 10 8 7 7 6 5 5 5 5 4 4 5 4 3 5 8 10 11 11 9 8 9 10 10 10
10 10 9 7 7 7 7 7 6 6 6 5 4 7 10 10 8 6 4 2 1 0 0 0 1 0 2 2 1 2 5 5 4 4 4 3 5 5 3 2 2 1 2 2 2 1 1 3 4 3 1 0 1 1 4 7 10 14 15 15 14 13 10 9 8 8 6 5 5 5 3 3 5 6 4 4 7 9 10 10 9 9 8 8 8 9 10
9 8 8 8 7 7 8 7 6 6 7 5 5 8 10 8 6 5 4 3 2 1 1 0 1 2 2 1 1 2 3 4 5 6 4 3 4 4 2 0 1 1 2 1 1 1 2 4 4 1 1 0 2 5 8 10 14 18 18 17 16 14 10 9 8 7 5 4 4 4 4 4 5 4 3 4 6 7 8 8 7 6 6 6 8 10 11
8 8 7 7 7 7 7 7 7 6 5 5 7 11 10 7 4 4 4 4 3 3 3 1 1 3 3 2 2 2 2 3 4 5 4 4 4 3 1 0 1 1 1 1 1 1 3 5 3 1 2 3 5 7 9 10 15 19 18 17 16 13 10 8 6 5 5 5 5 5 4 5 4 3 3 2 3 6 6 5 5 5 5 6 9 11 13
6 7 7 6 6 6 5 5 6 5 4 5 8 9 6 3 2 2 3 2 2 4 4 3 3 4 4 3 1 2 2 2 2 2 2 3 3 3 1 1 1 1 1 2 3 1 1 1 1 1 3 5 7 9 10 10 13 16 15 14 13 11 8 7 6 5 5 6 6 6 6 7 5 3 1 1 2 5 6 5 6 6 6 8 10 11 13
6 5 5 5 5 4 4 6 8 8 7 7 6 4 2 1 1 1 1 1 2 3 4 4 5 6 6 4 2 3 3 1 2 1 1 2 2 1 2 1 1 1 2 2 2 1 1 2 2 1 3 5 6 7 7 6 9 13 12 10 8 7 6 5 4 5 5 5 6 6 7 7 6 2 0 1 2 4 5 6 6 6 7 9 10 10 12
5 4 3 4 4 4 6 9 10 9 6 4 2 1 0 0 1 1 1 0 1 2 4 4 5 5 6 6 4 4 4 2 1 1 1 0 1 0 1 1 0 1 1 2 2 1 1 1 2 1 2 5 5 6 6 8 10 11 9 7 6 5 5 4 5 6 6 5 5 3 3 4 4 2 1 1 2 4 5 6 6 7 8 9 10 10 11
6 6 5 5 5 5 5 5 4 2 1 0 0 1 1 0 2 1 1 1 1 2 4 4 3 4 7 8 6 4 4 4 3 2 1 1 1 1 1 0 0 2 1 3 3 2 2 0 2 1 4 6 6 8 11 11 11 10 8 6 5 5 5 5 6 7 6 5 2 3 5 5 3 1 1 2 3 4 5 6 6 7 7 9 10 10 10
8 7 7 6 5 5 5 3 2 2 2 2 1 1 1 1 2 2 1 1 2 2 3 4 3 2 4 6 5 3 3 4 3 2 1 1 2 2 1 1 1 1 2 4 1 3 2 1 2 3 6 8 7 11 15 14 12 11 8 6 6 5 5 6 7 7 6 5 4 4 5 3 2 1 2 3 4 5 5 5 6 7 7 8 10 10 9
7 6 7 7 5 5 5 3 2 2 1 2 2 2 2 2 2 1 1 2 3 3 2 2 3 2 3 4 3 2 3 4 4 2 1 1 2 1 2 2 1 1 2 1 2 3 0 2 3 4 7 9 6 13 17 14 12 11 8 7 7 6 6 6 7 8 7 6 5 4 4 4 2 2 3 5 5 5 5 6 7 7 7 8 10 10 9
6 5 6 5 4 4 3 2 1 2 1 1 1 1 1 2 3 1 1 4 5 4 4 3 3 3 2 2 2 2 2 3 3 1 1 2 1 2 1 1 2 2 1 2 2 0 2 3 4 5 7 9 7 12 17 15 13 12 10 9 8 7 6 7 7 7 7 7 7 7 6 5 4 4 5 6 6 6 6 6 7 7 8 9 10 9 8
6 5 5 3 3 4 2 1 1 1 0 0 1 2 2 2 3 3 3 6 7 4 2 2 1 2 2 1 2 2 3 3 2 2 1 0 1 0 1 2 1 0 2 1 1 1 2 3 4 6 9 11 10 11 16 16 13 12 11 10 9 9 8 8 7 7 7 7 9 9 8 7 7 6 6 7 7 7 7 7 7 8 9 10 10 8 6
6 5 5 2 2 3 2 1 0 1 1 1 1 1 2 3 4 4 7 10 8 4 3 4 3 4 4 3 2 3 2 1 1 1 1 2 1 2 2 2 1 2 2 1 2 2 3 5 7 9 10 11 11 9 15 16 13 12 12 12 11 10 9 9 8 7 7 6 8 10 9 8 8 8 6 7 8 8 8 7 7 7 9 10 9 7 6
4 4 4 1 1 2 1 1 1 1 1 1 2 3 4 6 8 8 9 10 9 8 7 6 5 5 5 4 3 3 3 2 1 2 1 2 0 1 1 2 0 1 1 1 3 4 4 6 9 10 10 11 10 7 14 17 15 13 14 13 12 11 10 10 9 9 7 6 7 9 9 9 9 8 6 6 7 8 7 6 6 7 8 10 9 8 6
4 3 2 1 1 1 1 1 2 4 5 6 6 6 6 9 10 9 9 9 9 11 10 8 5 4 4 3 3 2 2 3 2 2 2 2 0 1 1 1 2 2 2 3 5 4 4 7 9 8 8 11 11 6 12 18 17 15 14 14 14 14 13 11 10 9 8 8 8 8 8 9 8 7 6 6 7 7 7 6 6 6 8 9 9 8 6
4 2 1 1 2 4 4 4 5 7 8 8 8 8 8 10 11 10 9 10 9 8 8 6 4 2 2 1 1 1 1 1 1 1 0 1 0 1 1 1 2 3 2 3 5 5 7 11 10 7 6 7 8 6 10 17 17 15 14 14 15 15 14 13 11 9 9 10 10 9 8 8 8 8 8 7 7 8 8 8 7 6 7 8 8 6 4
2 3 3 3 2 3 4 3 3 4 6 9 11 12 13 13 12 10 10 11 10 7 4 4 3 2 1 1 1 1 1 2 2 1 1 1 2 1 1 2 3 4 4 4 5 7 10 11 9 7 8 9 7 6 10 15 16 15 15 15 15 15 14 13 11 10 9 10 10 10 9 9 9 10 9 9 8 8 9 9 8 7 7 7 6 5 2
2 3 5 6 6 6 5 4 4 5 8 12 16 16 15 15 14 12 11 11 11 7 4 3 2 0 1 0 1 1 1 2 2 1 1 2 2 2 2 3 5 6 5 6 7 7 7 7 5 5 7 8 8 9 11 14 16 16 17 16 16 15 15 13 12 11 10 10 10 10 10 9 9 10 11 11 10 10 10 10 9 7 6 6 5 4 2
4 5 5 7 10 11 11 11 11 13 15 18 19 18 15 15 15 14 13 11 10 8 6 5 2 2 1 1 2 1 0 1 1 1 2 3 2 3 4 6 8 9 10 10 9 7 5 6 8 8 8 8 8 10 11 14 16 17 17 17 16 17 16 15 14 13 12 11 10 10 10 9 8 10 12 13 13 12 10 10 10 8 6 5 5 4 2
Wind_Direction
357 357 358 358 359 359 357 356 358 356 355 358 0 358 356 355 6 17 23 153 169 142 64 345 8 166 283 274 218 230 239 237 287 278 265 250 241 242 235 233 210 188 226 213 106 101 96 196 168 153 226 264 137 151 96 84 72 72 96 263 275 90 86 86 2 312 332 324 332 3 42 70 69 33 34 71 50 98 141 172 177 127 130 142 89 81 260
0 0 360 360 1 2 360 359 1 1 359 357 357 354 350 349 356 25 32 154 193 200 33 21 328 293 309 323 276 253 235 233 249 252 312 342 281 281 332 320 339 10 93 69 50 62 86 1 21 129 139 350 40 64 64 72 67 42 128 176 250 35 101 103 97 30 8 350 338 348 2 30 63 354 337 0 39 70 100 111 77 94 166 149 117 171 253
4 2 2 2 3 4 4 2 2 5 4 359 356 356 354 356 15 28 35 60 94 87 62 310 280 292 309 311 296 279 256 256 246 209 72 33 13 26 337 319 335 2 55 59 17 20 74 63 5 46 83 10 14 20 42 71 80 108 128 130 117 108 114 110 126 156 172 184 250 251 294 357 19 347 347 0 30 50 73 78 69 102 175 108 123 185 242
6 4 4 3 4 6 7 5 5 7 8 4 4 16 17 19 25 3 25 47 55 51 32 20 347 294 299 277 328 341 306 330 19 69 74 33 33 51 12 334 351 17 39 64 27 9 21 45 44 29 9 353 8 13 28 47 49 93 96 75 84 101 67 84 120 142 175 180 202 208 150 86 72 331 353 354 0 46 83 88 99 163 136 60 248 181 127
7 6 5 4 6 8 10 10 9 10 11 8 16 44 47 52 23 342 351 28 32 29 20 14 353 327 17 101 353 358 339 349 23 42 46 19 26 51 30 17 29 11 24 88 55 356 354 24 40 13 349 301 328 27 56 52 27 38 65 48 73 92 46 73 93 66 102 163 138 121 100 97 113 76 7 350 354 52 82 96 140 137 110 67 286 82 85
9 8 7 6 7 9 12 14 14 14 15 18 46 61 51 54 27 8 23 24 8 24 16 5 357 1 14 42 25 18 27 33 21 8 20 24 23 40 36 21 22 7 30 114 68 360 7 22 9 345 356 339 331 13 42 32 17 29 55 39 85 109 76 188 105 66 50 78 97 105 94 81 71 56 34 17 31 67 93 108 10 107 123 174 179 87 79
10 10 10 8 8 9 12 16 18 20 21 29 60 65 47 48 47 18 37 55 15 19 29 25 27 14 3 15 29 26 31 35 20 350 8 24 15 35 70 16 12 22 36 88 85 21 43 40 359 345 351 336 346 16 4 353 5 24 56 33 73 111 121 229 123 89 61 49 95 114 102 85 58 41 39 63 71 74 79 64 55 87 102 130 109 89 73
11 12 13 12 10 10 12 15 19 23 24 36 57 58 42 40 36 5 29 45 17 14 25 45 49 20 1 10 14 16 25 25 20 22 41 43 355 26 82 59 29 42 44 66 92 83 113 114 324 345 12 349 13 45 12 322 347 3 37 12 24 98 148 222 95 84 37 18 60 98 101 101 86 50 24 55 72 59 46 36 46 79 91 101 93 85 59
12 13 16 15 13 12 12 15 20 22 25 37 50 50 43 44 38 12 28 31 6 6 11 34 72 35 2 0 357 3 10 6 12 36 41 53 47 26 91 114 48 47 47 57 65 267 202 216 255 252 235 271 282 282 276 10 351 351 8 353 3 73 113 36 64 91 286 358 69 100 98 91 78 43 6 18 60 69 55 32 23 98 133 114 78 83 58
13 13 17 18 16 15 13 16 20 22 26 34 41 41 40 45 44 34 70 54 10 3 2 24 58 55 0 356 358 360 359 2 23 66 40 38 43 37 58 109 56 38 38 33 348 314 298 278 286 289 273 266 265 266 282 315 334 323 357 24 28 79 114 110 84 116 234 301 72 119 88 75 53 324 328 47 96 110 96 49 22 37 118 118 103 130 212
14 14 17 19 18 18 15 17 20 22 26 30 33 34 33 38 40 32 61 82 8 357 10 33 39 31 356 3 7 6 6 8 16 48 55 28 30 31 29 42 71 65 8 347 328 318 314 305 305 305 291 278 277 280 292 299 270 239 87 56 34 57 96 121 115 126 214 283 350 54 64 131 240 272 254 169 136 115 98 65 21 22 55 101 120 109 46
16 15 17 18 19 18 17 18 21 24 27 26 28 34 32 34 43 39 56 93 6 357 31 47 25 11 6 22 37 13 10 14 18 34 52 28 27 32 30 31 60 28 343 341 335 322 316 318 318 309 297 293 296 302 282 293 292 261 197 126 103 74 86 120 105 107 162 305 32 54 238 220 251 353 48 118 124 107 96 77 33 29 45 68 69 47 23
17 16 17 18 19 18 17 18 20 24 26 24 24 33 36 38 53 56 62 86 26 351 21 25 15 21 22 22 23 4 15 32 36 42 45 24 21 29 26 21 11 342 339 340 343 349 343 345 3 331 305 324 346 2 82 6 357 2 2 37 134 127 116 136 108 100 143 81 67 144 225 253 24 3 36 108 110 85 83 63 20 10 17 58 71 42 10
17 17 18 19 19 19 17 16 18 19 23 24 21 29 41 46 57 65 67 86 67 11 25 13 1 11 17 14 8 2 14 22 27 37 34 21 17 18 15 15 10 358 355 345 347 27 72 44 23 1 328 358 12 347 19 58 45 37 11 342 157 139 127 136 129 134 142 115 98 136 38 3 239 289 281 175 280 316 104 98 20 337 347 25 80 47 17
18 18 18 20 21 21 18 16 15 12 16 22 23 31 47 51 57 65 67 95 121 35 32 25 318 322 348 11 15 17 12 8 5 6 14 19 18 10 11 16 14 12 21 31 22 41 79 73 64 49 350 23 47 289 326 40 44 44 30 13 73 115 146 169 172 192 117 101 97 96 120 217 225 246 266 304 312 277 154 114 86 321 357 13 60 51 34
19 19 19 19 21 22 19 17 16 12 14 21 27 39 53 58 64 72 69 74 102 27 11 12 0 1 22 24 25 32 24 352 347 343 357 6 2 360 10 22 20 17 23 34 43 48 59 79 103 129 196 222 203 261 333 355 331 350 20 35 45 48 56 118 129 148 117 116 135 163 186 221 243 248 276 320 318 264 141 87 42 310 5 39 92 76 56
19 19 18 17 19 19 18 17 17 16 18 22 29 41 52 58 65 74 75 75 80 63 26 36 47 50 49 26 17 23 10 346 354 24 357 334 337 346 359 16 21 19 21 28 32 37 47 48 50 79 220 295 55 133 342 23 359 335 347 14 30 30 24 52 100 136 137 132 136 155 193 230 273 251 295 332 332 174 119 92 242 270 34 76 93 77 59
18 19 17 16 16 16 16 16 15 18 22 23 27 40 51 58 62 68 79 84 82 62 46 53 57 55 55 44 31 28 8 348 351 358 326 320 333 339 346 3 15 14 18 35 53 39 46 28 16 63 344 326 28 99 358 27 15 332 345 18 22 21 19 47 109 112 85 115 112 71 218 255 317 301 329 349 2 143 139 221 216 155 90 90 83 71 59
15 17 16 14 14 14 15 16 15 17 22 24 26 38 51 60 68 76 83 87 86 72 60 62 62 59 59 59 55 53 47 34 29 30 22 352 344 335 337 15 21 8 14 42 58 47 53 9 332 69 52 340 353 62 38 33 3 342 7 34 24 11 3 20 68 52 40 100 104 75 183 340 338 324 345 8 33 174 192 197 160 116 104 99 82 72 62
9 13 14 12 12 13 12 14 16 18 22 24 26 31 41 53 68 80 83 84 86 79 63 56 54 54 57 59 56 52 52 50 43 49 110 313 336 348 25 44 3 359 14 39 37 34 61 14 313 9 60 323 318 43 45 14 10 16 25 29 26 35 32 27 28 24 42 72 75 105 167 331 340 331 343 14 45 167 151 127 116 98 99 102 92 82 64
3 7 11 11 12 12 12 12 15 19 25 27 27 30 45 62 72 81 83 81 82 74 60 51 51 55 58 59 54 48 48 50 46 48 66 21 6 25 125 215 338 354 17 50 50 5 20 271 292 356 33 309 327 34 44 5 4 4 21 96 55 14 37 160 295 350 67 85 60 124 204 342 19 57 94 64 83 123 123 104 93 90 95 99 96 93 58
358 1 6 11 12 12 12 13 12 17 25 29 31 40 63 92 90 85 79 73 71 74 71 67 69 71 70 64 55 49 46 46 44 45 52 52 50 65 97 83 36 36 18 33 65 43 355 26 57 52 37 345 1 25 47 86 51 339 351 62 44 18 101 115 93 42 80 103 124 146 140 67 68 83 100 101 98 105 105 99 102 112 118 149 271 300 301
355 356 1 9 11 12 12 12 11 13 18 25 32 40 51 76 102 90 77 72 76 86 92 85 77 71 63 58 55 50 46 46 44 40 42 53 67 71 69 57 51 47 36 41 62 147 133 129 140 95 70 19 71 53 39 65 96 325 354 40 37 82 107 104 99 103 80 76 105 134 124 100 90 92 100 108 112 117 123 136 165 195 250 275 292 304 306
352 352 356 2 7 10 10 10 9 9 13 24 32 36 43 61 90 91 83 72 70 81 89 73 55 39 29 35 47 41 37 41 42 37 36 41 59 77 69 62 63 60 49 42 34 52 108 124 7 90 96 343 90 86 61 50 26 7 41 359 333 30 80 88 105 123 105 95 132 153 138 123 112 107 113 122 131 144 159 200 244 243 255 280 298 303 303
352 351 351 353 357 1 3 4 7 7 12 28 34 35 44 59 63 58 72 75 67 78 85 39 35 35 32 41 38 13 5 19 34 28 24 31 50 76 88 76 67 58 47 42 38 56 78 55 38 87 111 15 25 104 124 112 176 96 81 329 287 352 35 71 102 96 104 163 179 165 150 137 109 100 130 151 153 167 195 214 234 255 270 284 295 299 299
349 351 348 344 347 351 353 354 2 4 7 25 33 33 37 47 50 50 62 77 75 76 75 350 30 50 52 53 40 7 342 9 30 16 12 34 51 64 75 66 53 42 43 50 53 57 66 70 72 91 112 34 36 124 144 136 125 97 90 249 275 332 4 79 107 72 45 325 221 153 156 163 105 103 140 160 165 180 201 211 237 269 282 287 293 298 300
343 349 347 340 341 348 353 353 356 1 4 19 29 31 30 35 45 49 51 58 64 58 13 321 354 13 26 42 34 16 19 64 18 4 14 49 50 47 46 37 27 20 24 37 50 52 52 58 67 80 205 214 44 59 95 107 90 87 66 318 346 26 57 110 90 88 195 247 197 148 165 225 220 147 140 153 169 202 246 259 270 282 288 293 298 300 302
332 343 343 338 342 351 360 5 9 15 8 13 28 38 30 29 37 40 36 36 43 41 331 314 315 324 1 46 33 22 48 69 14 4 22 40 23 12 9 2 351 345 353 9 37 47 34 44 49 294 288 77 63 16 34 60 65 62 319 316 7 74 163 163 126 146 200 212 182 167 187 224 179 152 159 182 208 288 294 287 286 295 301 306 309 310 312
317 335 336 333 342 353 5 25 33 38 29 9 28 47 38 29 30 29 20 17 24 22 1 343 333 329 342 6 11 18 26 7 354 6 35 28 8 356 355 356 358 290 308 333 44 57 352 355 333 293 339 56 80 324 22 62 78 158 263 270 92 102 121 135 136 139 152 165 171 186 219 231 225 243 264 277 299 303 302 305 312 317 319 320 319 319 320
301 316 324 326 337 351 3 31 57 59 60 52 38 42 45 28 19 13 7 4 7 9 9 10 1 318 302 303 323 353 2 342 339 345 355 350 349 346 343 348 13 154 251 274 336 14 346 342 354 340 270 150 102 95 110 120 136 246 236 182 149 144 144 143 145 152 169 175 178 195 223 233 253 270 276 288 300 305 315 323 323 322 323 321 318 319 322
294 297 305 311 319 333 348 18 98 81 70 65 56 54 56 18 0 355 354 357 2 9 10 352 320 317 321 310 308 306 293 301 313 313 307 310 318 329 333 337 356 187 226 240 245 270 266 289 337 334 270 178 98 96 126 131 124 254 218 184 172 172 166 159 162 172 177 175 175 198 221 228 244 259 264 279 296 309 321 325 323 321 317 312 310 314 321
294 289 286 289 293 298 304 285 200 110 70 60 53 45 21 1 354 350 348 353 5 18 18 357 334 339 344 338 326 317 308 296 293 305 312 305 302 320 330 322 235 235 254 232 183 251 268 238 224 253 253 204 127 82 98 117 161 213 201 185 181 182 180 178 182 187 193 198 203 218 233 243 255 264 265 272 287 304 315 318 315 309 303 302 308 318 325
297 289 282 278 275 274 277 274 262 245 231 48 32 4 348 346 345 343 346 357 13 31 34 25 51 270 316 330 336 345 355 351 326 333 340 319 290 307 325 303 261 252 252 237 221 259 289 227 204 230 246 207 139 91 93 184 207 198 189 183 183 185 188 192 202 214 232 250 255 255 257 257 256 257 254 257 287 314 319 316 312 309 308 318 329 338 336
303 293 287 281 272 263 265 272 269 259 261 288 319 326 334 337 334 332 338 347 357 22 20 21 90 276 316 332 112 355 1 6 358 352 1 344 303 299 299 292 282 256 239 247 249 249 248 225 202 193 210 197 116 95 261 253 216 188 181 181 184 187 190 195 211 230 247 263 270 271 273 265 241 222 218 250 310 329 326 319 318 325 335 338 341 344 341
309 297 290 283 271 262 269 280 275 258 253 261 289 320 332 332 327 324 325 322 328 347 242 256 138 120 347 354 346 342 359 6 351 337 340 333 314 299 276 283 304 261 235 241 233 226 238 211 191 189 224 214 117 179 239 235 206 188 183 183 184 187 194 203 217 232 245 263 272 269 269 249 221 212 225 295 322 329 327 324 326 335 345 353 355 356 355
312 300 287 277 272 271 276 279 271 253 247 258 300 327 330 322 311 306 301 291 284 257 222 195 159 169 159 156 283 311 355 10 351 335 331 328 322 307 279 285 308 265 241 234 239 287 238 198 183 185 328 177 202 231 238 225 205 195 193 194 196 202 216 226 227 228 233 241 250 252 245 224 218 230 287 319 326 329 327 324 329 342 360 7 4 5 5
309 299 284 273 274 279 278 271 264 256 254 281 315 322 318 306 293 289 279 269 266 252 227 206 233 217 192 190 240 286 341 348 334 336 346 345 326 305 270 195 284 300 319 321 318 291 216 191 171 159 214 221 238 253 256 240 221 210 204 203 207 215 225 227 219 216 219 219 225 234 229 217 228 267 304 312 332 347 348 346 351 359 3 1 2 4 3
305 293 284 278 279 278 267 257 254 252 266 309 321 319 308 293 287 282 258 241 247 242 225 220 241 230 204 188 226 266 293 331 353 1 358 352 337 324 344 20 321 335 339 299 288 290 220 183 112 179 239 257 269 272 273 260 234 220 210 206 209 217 225 225 221 226 230 228 232 237 229 217 222 255 290 262 328 353 3 7 3 356 347 349 353 356 356
327 311 297 292 287 269 252 261 270 273 286 307 316 309 280 274 310 278 222 208 231 225 213 225 241 224 200 192 221 237 244 327 35 46 333 353 350 334 3 15 2 36 25 309 294 342 358 327 352 344 282 287 283 273 271 244 205 201 203 206 214 229 240 243 255 269 271 273 276 268 246 226 218 215 65 308 320 342 349 350 354 351 344 344 346 346 347
339 342 339 321 305 286 275 281 286 287 287 292 299 302 329 322 230 208 179 198 257 219 207 226 248 237 219 220 226 218 219 235 270 229 246 287 214 198 37 28 271 51 41 276 285 18 94 287 341 358 263 272 267 237 208 184 180 188 198 208 227 254 265 272 292 296 287 290 294 268 206 186 179 157 43 328 312 324 328 332 341 345 342 342 343 340 339
356 0 0 346 331 322 314 306 307 318 345 124 338 347 17 242 255 260 129 101 277 245 215 214 235 234 219 215 211 205 213 225 223 213 226 254 210 162 84 285 271 69 90 257 285 39 91 38 337 277 251 277 271 218 195 188 189 195 203 216 242 271 283 289 300 297 284 278 266 183 158 149 152 161 341 326 309 311 319 323 327 331 334 337 337 332 329
356 354 353 350 351 357 7 32 90 88 67 67 39 355 327 264 301 311 223 224 278 281 226 212 230 239 211 202 200 198 195 201 206 202 200 243 219 187 165 344 32 66 229 248 310 49 63 342 297 254 275 303 283 218 203 200 199 202 214 235 252 273 290 295 300 297 282 265 241 200 177 169 183 243 326 323 312 314 327 331 327 324 325 329 331 327 322
352 354 354 356 7 21 26 46 90 76 47 64 52 7 343 339 339 324 276 281 307 332 326 255 243 218 175 184 198 191 173 192 216 220 184 210 229 146 68 40 46 202 243 273 50 61 231 230 219 244 297 323 286 220 211 207 205 210 228 244 250 266 290 298 301 299 281 255 237 221 210 209 227 274 297 302 304 314 327 333 329 325 324 328 329 323 315
349 349 346 343 359 23 24 27 54 43 33 69 77 65 20 343 328 298 309 323 320 323 326 299 251 218 197 199 202 186 179 197 221 235 215 223 219 78 75 239 232 239 307 3 45 141 238 231 230 260 308 327 292 230 215 209 209 218 229 237 243 256 275 286 296 299 280 249 230 222 222 229 245 261 273 283 294 304 311 317 322 325 326 329 329 320 307
358 356 356 350 358 12 9 335 6 23 24 186 110 145 179 255 262 236 283 314 305 294 333 352 247 223 238 229 204 213 215 204 202 220 214 150 59 79 221 225 217 60 25 14 335 307 288 261 262 281 304 319 304 250 219 210 213 223 231 239 246 256 267 276 285 293 285 256 233 225 231 242 247 249 258 275 288 295 298 302 309 320 327 327 326 321 306
9 13 24 23 345 358 27 100 11 1 146 150 131 176 219 271 283 287 315 324 314 294 322 338 300 253 245 235 236 258 249 187 172 230 175 99 72 245 212 153 87 36 33 8 302 277 240 243 273 297 309 319 314 265 223 212 215 226 236 246 253 259 267 272 273 280 288 269 242 235 240 244 242 243 258 280 286 284 285 290 298 313 324 327 327 329 321
16 19 36 59 289 333 15 167 224 270 245 270 327 328 330 330 323 319 328 333 324 309 304 298 274 254 244 229 231 258 240 189 189 243 176 125 155 268 133 88 40 214 150 211 253 247 236 259 292 317 334 341 335 273 220 213 220 233 241 249 255 259 265 269 269 272 277 268 248 240 236 230 228 238 263 289 290 278 272 282 300 314 324 330 334 334 329
9 3 17 96 211 250 227 218 300 302 294 300 314 323 333 340 337 334 336 332 315 298 288 275 258 260 261 232 214 230 221 189 197 232 198 134 72 324 28 14 290 229 178 201 219 220 247 282 302 328 348 348 341 295 222 214 221 234 241 247 252 256 259 264 269 272 272 267 259 250 235 224 224 236 257 280 291 284 277 286 303 315 326 337 341 336 329
354 333 270 221 248 257 251 268 304 304 295 296 306 316 328 337 341 347 354 348 327 301 286 274 257 262 286 268 228 292 258 194 182 237 192 98 97 196 152 159 254 251 243 221 211 228 274 296 307 317 316 318 324 293 229 218 222 233 241 246 251 255 258 262 270 274 270 266 266 264 252 236 229 232 245 263 286 297 295 291 293 308 326 336 337 333 328
316 269 238 226 250 277 275 279 294 292 290 299 308 316 324 328 329 338 352 348 335 324 309 285 261 251 298 347 30 348 265 222 181 148 178 194 195 189 182 213 231 229 224 226 240 270 296 309 315 314 304 298 294 267 231 221 224 236 245 247 249 252 256 262 269 270 267 266 268 269 265 252 237 233 241 256 276 297 298 286 279 295 322 331 330 329 342
226 247 242 231 233 250 272 284 282 277 281 292 300 308 312 312 313 323 335 334 327 325 316 280 259 76 60 81 221 224 224 199 166 144 206 216 190 152 165 219 231 225 231 260 285 307 323 328 321 311 307 301 288 268 247 234 235 243 248 249 249 250 252 258 262 262 262 265 266 265 267 263 248 237 240 250 264 281 285 272 264 277 305 317 314 315 350
213 239 250 243 242 251 263 269 272 276 282 288 295 302 302 300 305 316 322 317 309 299 282 263 233 134 126 238 246 243 202 202 182 175 226 232 207 174 196 232 246 248 256 275 291 300 308 314 311 303 296 291 286 277 263 252 248 249 248 246 246 247 250 254 257 257 257 259 259 260 267 270 258 243 240 245 253 265 270 263 258 266 283 290 285 286 301